PE1NIB-13 Weather Reports


time (UTC)temp
C
wind
direction
speed
KPH
gust
KPH
rain 1hr
cm
rain 24hr
cm
rain mn
cm
humidity
%
barometer
mb
20260507055619 8 313 3.2 6.4 0.00 0.00 0.00 79 1014.6
20260507054716 8 296 3.2 4.8 0.00 0.00 0.00 79 1014.5
20260507053603 8 305 3.2 6.4 0.00 0.00 0.00 79 1014.4
20260507052921 8 311 1.6 6.4 0.00 0.00 0.00 80 1014.4
20260507052019 8 312 3.2 4.8 0.00 0.03 0.00 81 1014.3
20260507050903 7 310 3.2 9.7 0.00 0.03 0.00 81 1014.1
20260507050003 7 307 1.6 6.4 0.00 0.03 0.00 82 1014.1
20260507045403 7 302 1.6 4.8 0.00 0.05 0.00 82 1014.1
20260507044717 7 281 1.6 4.8 0.00 0.05 0.00 82 1014.0
20260507043819 7 300 1.6 3.2 0.00 0.05 0.00 83 1013.9
20260507042917 7 303 1.6 3.2 0.00 0.05 0.00 83 1014.0
20260507042019 7 316 1.6 3.2 0.00 0.08 0.00 84 1013.7
20260507040903 7 316 1.6 3.2 0.00 0.08 0.00 84 1013.6
20260507040003 7 312 1.6 4.8 0.00 0.08 0.00 84 1013.9
20260507035620 7 312 1.6 6.4 0.00 0.08 0.00 84 1013.6
20260507034503 7 311 1.6 4.8 0.00 0.08 0.00 84 1013.5
20260507033604 7 307 1.6 4.8 0.00 0.10 0.00 84 1013.5
20260507032704 7 307 1.6 3.2 0.00 0.10 0.00 84 1013.4
20260507032020 7 304 1.6 4.8 0.00 0.10 0.00 83 1013.6
20260507030903 7 311 3.2 4.8 0.00 0.10 0.00 83 1013.6
20260507030219 7 306 1.6 6.4 0.00 0.10 0.00 83 1013.5
20260507025621 7 312 1.6 6.4 0.00 0.10 0.00 83 1013.4
20260507024718 7 301 1.6 3.2 0.00 0.10 0.00 83 1013.4
20260507023603 7 306 1.6 6.4 0.00 0.10 0.00 83 1013.3
20260507022703 7 303 1.6 6.4 0.00 0.10 0.00 82 1013.2
20260507022020 7 296 0.0 1.6 0.00 0.10 0.00 83 1013.0
20260507021118 7 313 0.0 3.2 0.00 0.10 0.00 82 1013.2
20260507020220 7 313 1.6 4.8 0.00 0.10 0.00 82 1013.0
20260507015617 7 310 1.6 4.8 0.00 0.10 0.00 81 1013.0
20260507014503 8 304 1.6 4.8 0.00 0.10 0.00 81 1013.0
20260507013821 8 305 1.6 4.8 0.00 0.10 0.00 80 1012.8
20260507012703 8 298 1.6 6.4 0.00 0.10 0.00 80 1013.1
20260507011804 8 307 1.6 3.2 0.00 0.10 0.00 80 1012.8
20260507010004 8 302 1.6 3.2 0.00 0.10 0.00 79 1012.8
20260507005617 8 302 1.6 3.2 0.00 0.10 0.00 79 1012.6
20260507004720 8 306 1.6 4.8 0.00 0.10 0.00 79 1012.7
20260507003603 8 302 1.6 3.2 0.00 0.10 0.00 78 1012.5
20260507002919 8 302 1.6 4.8 0.00 0.10 0.00 78 1012.6
20260507002022 8 319 0.0 1.6 0.00 0.10 0.00 78 1012.7
20260507001119 8 301 1.6 3.2 0.00 0.10 0.00 77 1012.6
20260507000003 9 281 1.6 4.8 0.00 0.10 0.00 77 1012.6
20260506235618 9 277 1.6 4.8 0.00 0.10 0.00 77 1012.5
20260506234720 9 292 1.6 4.8 0.00 0.10 0.00 76 1012.5
20260506233604 9 288 1.6 6.4 0.00 0.10 0.00 76 1012.5
20260506232703 9 288 3.2 6.4 0.00 0.10 0.00 76 1012.4
20260506231803 9 301 1.6 6.4 0.00 0.10 0.00 77 1012.3
20260506231120 9 302 1.6 4.8 0.00 0.10 0.00 78 1012.1
20260506230217 9 312 1.6 4.8 0.00 0.10 0.00 79 1012.2
20260506225403 9 308 0.0 1.6 0.00 0.10 0.00 80 1012.1
20260506224721 9 308 0.0 1.6 0.00 0.10 0.00 80 1012.2
20260506223603 10 308 0.0 1.6 0.00 0.10 0.00 79 1012.2
20260506222704 10 309 1.6 3.2 0.00 0.10 0.00 78 1012.0
20260506221803 10 309 0.0 1.6 0.00 0.10 0.00 77 1012.1
20260506220903 10 309 0.0 1.6 0.00 0.10 0.00 76 1012.1
20260506220004 10 302 0.0 3.2 0.00 0.10 0.00 74 1012.1
20260506215408 10 296 0.0 1.6 0.00 0.10 0.10 74 1011.9
20260506214716 10 294 0.0 3.2 0.00 0.10 0.10 74 1012.0
20260506213603 10 273 0.0 1.6 0.00 0.10 0.10 77 1012.0
20260506212703 10 0 0.0 0.0 0.00 0.10 0.10 78 1011.9
20260506211803 10 0 0.0 0.0 0.00 0.10 0.10 76 1011.8
20260506210904 10 0 0.0 0.0 0.00 0.10 0.10 77 1011.8
20260506210004 10 0 0.0 0.0 0.00 0.10 0.10 77 1011.8
20260506205403 10 0 0.0 0.0 0.00 0.10 0.10 75 1011.6
20260506204503 10 273 0.0 1.6 0.00 0.10 0.10 74 1011.5
20260506203603 10 273 0.0 1.6 0.00 0.10 0.10 73 1011.8
20260506202917 10 273 0.0 1.6 0.00 0.10 0.10 71 1011.7
20260506202019 10 273 0.0 1.6 0.00 0.10 0.10 71 1011.7
20260506200904 10 269 0.0 1.6 0.00 0.10 0.10 70 1011.6
20260506200003 10 257 0.0 1.6 0.00 0.10 0.10 69 1011.5
20260506195403 10 257 0.0 3.2 0.00 0.10 0.10 70 1011.6
20260506194504 10 251 0.0 1.6 0.00 0.10 0.10 70 1011.5
20260506193820 10 251 0.0 1.6 0.00 0.10 0.10 69 1011.3
20260506192917 10 250 0.0 1.6 0.00 0.10 0.10 69 1011.3
20260506192020 11 259 0.0 1.6 0.00 0.10 0.10 68 1011.1
20260506191117 11 296 0.0 1.6 0.00 0.10 0.10 69 1010.8
20260506190005 11 331 0.0 1.6 0.00 0.10 0.10 69 1010.9
20260506185403 11 308 0.0 3.2 0.00 0.10 0.10 69 1010.8
20260506184503 11 296 1.6 3.2 0.00 0.10 0.10 69 1010.5
20260506183604 11 299 0.0 3.2 0.00 0.10 0.10 68 1010.6
20260506182703 11 301 1.6 3.2 0.00 0.10 0.10 67 1010.5
20260506181803 11 312 1.6 1.6 0.00 0.10 0.10 67 1010.3
20260506180903 11 311 1.6 4.8 0.00 0.10 0.10 65 1010.4
20260506180004 11 289 1.6 4.8 0.00 0.10 0.10 65 1010.2
20260506175403 11 299 1.6 3.2 0.00 0.10 0.10 66 1010.0
20260506174503 11 289 1.6 6.4 0.00 0.10 0.10 65 1009.9
20260506173821 11 301 1.6 9.7 0.00 0.10 0.10 65 1009.9
20260506172703 11 285 1.6 3.2 0.00 0.10 0.10 66 1009.8
20260506172021 11 283 3.2 6.4 0.00 0.10 0.10 66 1009.8
20260506171118 11 275 3.2 9.7 0.00 0.10 0.10 66 1009.6
20260506170004 11 278 1.6 4.8 0.00 0.10 0.10 68 1009.5
20260506165617 11 209 1.6 6.4 0.00 0.10 0.10 68 1009.5
20260506164503 11 239 1.6 3.2 0.00 0.10 0.10 70 1009.8
20260506163608 11 164 1.6 4.8 0.00 0.10 0.10 70 1009.6
20260506162703 11 178 3.2 9.7 0.00 0.10 0.10 70 1009.8
20260506162017 11 157 3.2 12.9 0.00 0.10 0.10 70 1009.5
20260506161119 11 132 1.6 4.8 0.00 0.10 0.10 73 1009.5
20260506160221 11 132 1.6 9.7 0.00 0.10 0.10 72 1009.6
20260506155618 11 152 1.6 4.8 0.00 0.10 0.10 73 1009.6
20260506154720 11 227 3.2 6.4 0.00 0.10 0.10 75 1009.6
20260506153818 11 281 3.2 6.4 0.00 0.10 0.10 73 1009.3
20260506152703 11 292 3.2 11.3 0.00 0.10 0.10 73 1009.6
20260506151803 11 54 1.6 6.4 0.00 0.10 0.10 73 1009.3
20260506150903 11 158 3.2 12.9 0.00 0.10 0.10 73 1009.3
20260506150004 10 272 1.6 11.3 0.00 0.10 0.10 74 1009.4
20260506145403 11 292 1.6 11.3 0.00 0.10 0.10 75 1009.4
20260506144504 11 252 3.2 6.4 0.00 0.10 0.10 74 1009.5
20260506143818 11 142 3.2 12.9 0.00 0.10 0.10 74 1009.5
20260506142921 11 128 3.2 9.7 0.00 0.10 0.10 72 1009.2
20260506141803 11 240 3.2 11.3 0.00 0.10 0.10 71 1009.3
20260506140903 11 167 3.2 11.3 0.00 0.10 0.10 71 1009.2
20260506140004 11 160 3.2 11.3 0.00 0.10 0.10 69 1009.2
20260506135619 11 135 3.2 11.3 0.00 0.10 0.10 69 1009.4
20260506134722 11 262 1.6 9.7 0.00 0.10 0.10 68 1009.2
20260506133603 11 300 4.8 14.5 0.00 0.10 0.10 67 1009.1
20260506132703 11 301 4.8 12.9 0.00 0.10 0.10 66 1009.3
20260506131803 11 306 4.8 12.9 0.00 0.10 0.10 66 1008.9
20260506130903 11 299 4.8 12.9 0.00 0.10 0.10 66 1008.9
20260506130003 11 297 4.8 14.5 0.00 0.10 0.10 65 1009.0
20260506125403 11 299 3.2 14.5 0.00 0.10 0.10 64 1008.8
20260506124503 11 260 3.2 12.9 0.00 0.10 0.10 63 1008.8
20260506123819 11 289 4.8 16.1 0.00 0.10 0.10 63 1008.8
20260506122922 12 281 3.2 9.7 0.00 0.10 0.10 62 1008.5
20260506121803 11 287 4.8 16.1 0.00 0.10 0.10 63 1008.6
20260506120904 11 307 4.8 14.5 0.00 0.10 0.10 62 1008.8
20260506120003 11 293 3.2 12.9 0.00 0.10 0.10 62 1008.9
20260506115403 11 286 4.8 14.5 0.00 0.10 0.10 63 1008.6
20260506114503 11 298 4.8 11.3 0.00 0.10 0.10 61 1008.5
20260506113604 11 278 3.2 12.9 0.00 0.10 0.10 62 1008.6
20260506112703 11 295 3.2 12.9 0.00 0.10 0.10 64 1008.6
20260506112020 11 303 3.2 11.3 0.00 0.10 0.10 64 1008.5
20260506111117 11 307 3.2 12.9 0.00 0.10 0.10 64 1008.4
20260506110219 11 297 3.2 11.3 0.00 0.10 0.10 65 1008.5
20260506105621 11 258 3.2 12.9 0.00 0.10 0.10 67 1008.5
20260506104718 11 297 3.2 12.9 0.00 0.10 0.10 66 1008.4
20260506103821 11 296 4.8 11.3 0.00 0.10 0.10 66 1008.6
20260506102918 11 283 3.2 9.7 0.00 0.10 0.10 65 1008.3
20260506102020 11 278 3.2 9.7 0.00 0.10 0.10 66 1008.3
20260506101118 11 228 1.6 11.3 0.00 0.10 0.10 65 1008.3
20260506100220 11 308 3.2 11.3 0.00 0.10 0.10 64 1008.3
20260506095404 11 300 1.6 6.4 0.00 0.10 0.10 67 1008.3
20260506094503 11 263 3.2 11.3 0.00 0.10 0.10 67 1008.1
20260506093603 11 197 3.2 11.3 0.00 0.10 0.10 66 1008.2
20260506092919 11 238 4.8 16.1 0.00 0.10 0.10 67 1007.9
20260506092021 11 242 4.8 16.1 0.00 0.10 0.10 69 1008.0
20260506091118 11 196 3.2 9.7 0.00 0.10 0.10 76 1008.0
20260506090003 10 143 3.2 11.3 0.00 0.10 0.10 78 1008.1
20260506085403 10 214 3.2 9.7 0.00 0.10 0.10 79 1007.8
20260506084720 10 283 3.2 14.5 0.00 0.10 0.10 77 1008.1
20260506083817 10 242 3.2 16.1 0.00 0.10 0.10 79 1007.7
20260506082919 10 202 3.2 11.3 0.00 0.10 0.10 80 1007.8
20260506082017 10 273 3.2 12.9 0.00 0.10 0.10 80 1007.5
20260506080903 10 293 3.2 11.3 0.00 0.10 0.10 81 1007.6
20260506080221 10 288 3.2 11.3 0.00 0.10 0.10 81 1007.7
20260506072920 10 304 3.2 9.7 0.00 0.10 0.10 84 1007.5
20260506072017 10 309 3.2 6.4 0.00 0.10 0.10 85 1007.3
20260506071120 10 305 3.2 11.3 0.00 0.10 0.10 85 1007.3
20260506062018 9 304 3.2 11.3 0.03 0.10 0.10 87 1007.3
20260506060904 9 308 3.2 9.7 0.03 0.10 0.10 88 1007.1